Погода в Нялинском

Россия / Ханты-Мансийский автономный округ - Югра     61°17′22″N   69°33′34″E
темп.,
°C
ветер,
м/с
пор.,
м/с
влажн.,
%
обл.,
%
осадки,
мм/ч
давл.,
гПа
погр.,
м
18 апреля, вс
вс1823:00−6в7878100 0.0 1014499
02:00−7всв81066100 0.1 1015646
05:00−9св101363100 0.1 1017719
08:00−11св912655 0.0 1020744
11:00−9ссв911525 0.0 10241086
14:00−8с91049100 0.0 10261420
17:00−8с91052100 0.0 10281650
20:00−9с7116332 0.0 10301303
19 апреля, пн
пн1923:00−10с59747 0.0 1030871
02:00−10ссз51071100 0.0 1031747
05:00−11ссз610827 0.0 1032618
08:00−10с7966100 0.0 10331077
11:00−7с7855100 0.0 10341374
14:00−5с6749100 0.0 10331588
17:00−4ссз4647100 0.1 10321439
20:00−5з465999 0.0 1032211
20 апреля, вт
вт2023:00−6зюз4868100 0.0 1030243
02:00−5юз71267100 0.0 1026381
05:00−4зюз91562100 0.0 1022575
08:00−3з91793100 1.0 1018762
11:00+2зсз91576100 1.6 10171191
14:00+3сз91578100 0.1 10171278
17:00+4ссз9137096 0.2 10181263
20:00+1с7137226 0.2 1021336
21 апреля, ср
ср2123:00−2с7118131 0.2 1024516
02:00−3с5107832 0.0 1026448
05:00−4ссв48875 0.0 1029307
08:00−3ссв457194 0.0 1032424
11:00−1св33575 0.0 1033669
14:00+1св11503 0.0 1034802
17:00+2в11501 0.0 1035605
20:000юв33651 0.0 103518
22 апреля, чт
чт2223:00−1ю34722 0.0 103745
02:00−2ю34753 0.0 103758
05:00−1ю34746 0.0 103856
08:00+2ююз345874 0.0 1039297
11:00+5ю55465 0.0 1038819
14:00+8ююз56475 0.0 10381209
17:00+8ююз67515 0.0 10371255
20:00+5ююв48675 0.0 103897